Weather History for Juliana Airport, Saint Maarten, Saint Maartin

Change the Weather History Date:

Sunday, January 19, 2014

  Actual Average Record
Temperature  
Mean Temperature 80 °F -  
Max Temperature 82 °F 81 °F - ()
Min Temperature 77 °F 72 °F - ()
Cooling Degree Days 14    
Growing Degree Days 30 (Base 50)    
Moisture  
Dew Point 72 °F    
Average Humidity 75    
Maximum Humidity 83    
Minimum Humidity 65    
Precipitation  
Precipitation 0.00 in 0.07 in - ()
Sea Level Pressure  
Sea Level Pressure 30.08 in    
Wind  
Wind Speed 8 mph ()    
Max Wind Speed 14 mph    
Max Gust Speed -    
Visibility 7.3 miles    
Events      
T = Trace of Precipitation, MM = Missing Value Source: Averaged Metar Reports

Daily Weather History Graph

Daily Weather History Graph

Search for Another Location

Airport:

Trip Planner

Search our weather history database for the weather conditions in past years. The results will help you decide how hot, cold, wet, or windy it might be!

Date:

Astronomy

Jan. 19, 2014 Rise Set
Actual Time 6:47 AM AST 5:59 PM AST
Civil Twilight 6:23 AM AST 6:22 PM AST
Nautical Twilight 5:57 AM AST 6:49 PM AST
Astronomical Twilight 5:30 AM AST 7:15 PM AST
Moon 8:57 PM AST (1/19) 8:47 AM AST (1/19)
Length of Visible Light 11h 58m
Length of Day
11h 12m
Waning Gibbous, 90% of the Moon is Illuminated
Jan 19
Waning Gibbous
Jan 24
Last Quarter
Jan 30
New
Feb 6
First Quarter
Feb 14
Full

Hourly Weather History & Observations

Time (AST) Temp. Heat Index Dew Point Humidity Pressure Visibility Wind Dir Wind Speed Gust Speed Precip Events Conditions
12:00 AM 78.8 °F - 71.6 °F 78% 30.06 in 6.2 mi East 9.2 mph - N/A   Scattered Clouds
1:00 AM 78.8 °F - 71.6 °F 78% 30.06 in 6.2 mi East 8.1 mph - N/A   Partly Cloudy
2:00 AM 78 °F - 71 °F 74% 30.07 in 19 mi ESE 9.2 mph - -   Scattered Clouds
2:00 AM 78.8 °F - 71.6 °F 78% 30.06 in 6.2 mi ESE 9.2 mph - N/A   Partly Cloudy
3:00 AM 77.0 °F - 71.6 °F 83% 30.04 in 6.2 mi East 9.2 mph - N/A   Scattered Clouds
4:00 AM 77.0 °F - 71.6 °F 83% 30.04 in 6.2 mi East 8.1 mph - N/A   Partly Cloudy
5:00 AM 78 °F - 71 °F 72% 30.06 in 12 mi East 8.1 mph - -   Scattered Clouds
5:00 AM 77.0 °F - 71.6 °F 83% 30.04 in 6.2 mi East 8.1 mph - N/A   Partly Cloudy
6:00 AM 77.0 °F - 71.6 °F 83% 30.06 in 6.2 mi East 6.9 mph - N/A   Scattered Clouds
7:00 AM 77.0 °F - 71.6 °F 83% 30.06 in 6.2 mi East 6.9 mph - N/A   Partly Cloudy
8:00 AM 79 °F - 72 °F 73% 30.11 in 8 mi ESE 9.2 mph - -   Widespread Dust
8:00 AM 78.8 °F - 71.6 °F 78% 30.09 in 6.2 mi East 8.1 mph - N/A   Scattered Clouds
9:00 AM 80.6 °F 84.6 °F 71.6 °F 74% 30.12 in 6.2 mi ESE 8.1 mph - N/A   Partly Cloudy
10:00 AM 80.6 °F 84.6 °F 71.6 °F 74% 30.12 in 6.2 mi ESE 10.4 mph - N/A   Partly Cloudy
11:00 AM 82 °F - 72 °F 66% 30.14 in 9 mi SE 13.8 mph - -   Widespread Dust
11:00 AM 80.6 °F 84.6 °F 71.6 °F 74% 30.12 in 6.2 mi SE 13.8 mph - N/A   Partly Cloudy
12:00 PM 82.4 °F 87.2 °F 71.6 °F 70% 30.09 in 6.2 mi ESE 12.7 mph - N/A   Scattered Clouds
1:00 PM 80.6 °F 85.4 °F 73.4 °F 79% 30.09 in 6.2 mi SE 11.5 mph - N/A   Partly Cloudy
2:00 PM 82 °F - 72 °F 65% 30.08 in 9 mi ESE 9.2 mph - -   Haze
2:00 PM 82.4 °F 87.2 °F 71.6 °F 70% 30.06 in 6.2 mi ESE 9.2 mph - N/A   Haze
3:00 PM 82.4 °F 87.2 °F 71.6 °F 70% 30.06 in 6.2 mi ESE 11.5 mph - N/A   Haze
4:00 PM 82.4 °F 87.2 °F 71.6 °F 70% 30.06 in 6.2 mi ESE 10.4 mph - N/A   Partly Cloudy
5:00 PM 81 °F - 72 °F 66% 30.07 in 9 mi ESE 10.4 mph - -   Haze
5:00 PM 80.6 °F 84.6 °F 71.6 °F 74% 30.06 in 6.2 mi ESE 9.2 mph - N/A   Haze
6:00 PM 78.8 °F - 71.6 °F 78% 30.06 in 6.2 mi ESE 11.5 mph - N/A   Haze
7:00 PM 78.8 °F - 71.6 °F 78% 30.06 in 6.2 mi ESE 11.5 mph - N/A   Haze
8:00 PM 79 °F - 71 °F 70% 30.09 in 11 mi ESE 9.2 mph - -   Scattered Clouds
8:00 PM 78.8 °F - 71.6 °F 78% 30.09 in 6.2 mi ESE 9.2 mph - N/A   Partly Cloudy
9:00 PM 78.8 °F - 71.6 °F 78% 30.09 in 6.2 mi ESE 9.2 mph - N/A   Partly Cloudy
10:00 PM 78.8 °F - 71.6 °F 78% 30.12 in 6.2 mi ESE 6.9 mph - N/A   Partly Cloudy
11:00 PM 78 °F - 71 °F 75% 30.12 in 9 mi ESE 6.9 mph - -   Scattered Clouds
11:00 PM 78.8 °F - 71.6 °F 78% 30.09 in 6.2 mi ESE 6.9 mph - N/A   Partly Cloudy